TimeEDT,TemperatureF,Dew PointF,Humidity,Sea Level PressureIn,VisibilityMPH,Wind Direction,Wind SpeedMPH,Gust SpeedMPH,PrecipitationIn,Events,Conditions,WindDirDegrees,DateUTC
12:15 AM,46.4,37.4,71,30.24,10.0,Calm,Calm,-,N/A,,Clear,0,2013-04-21 04:15:00
12:35 AM,44.6,39.2,81,30.24,10.0,Calm,Calm,-,N/A,,Clear,0,2013-04-21 04:35:00
12:55 AM,44.6,37.4,76,30.24,10.0,Calm,Calm,-,N/A,,Clear,0,2013-04-21 04:55:00
1:15 AM,44.6,37.4,76,30.24,10.0,Calm,Calm,-,N/A,,Clear,0,2013-04-21 05:15:00
1:35 AM,44.6,37.4,76,30.24,10.0,Calm,Calm,-,N/A,,Clear,0,2013-04-21 05:35:00
1:55 AM,44.6,37.4,76,30.24,10.0,Calm,Calm,-,N/A,,Clear,0,2013-04-21 05:55:00
2:15 AM,44.6,37.4,76,30.24,10.0,Calm,Calm,-,N/A,,Clear,0,2013-04-21 06:15:00
2:35 AM,42.8,41.0,93,30.24,10.0,ENE,4.6,-,N/A,,Clear,70,2013-04-21 06:35:00
5:15 AM,41.0,39.2,93,30.28,7.0,ENE,3.5,-,N/A,,Clear,70,2013-04-21 09:15:00
5:35 AM,41.0,39.2,93,30.28,7.0,Calm,Calm,-,N/A,,Clear,0,2013-04-21 09:35:00
5:55 AM,41.0,39.2,93,30.29,7.0,Calm,Calm,-,N/A,,Clear,0,2013-04-21 09:55:00
6:15 AM,41.0,39.2,93,30.29,7.0,NE,3.5,-,N/A,,Clear,50,2013-04-21 10:15:00
6:35 AM,41.0,37.4,87,30.31,7.0,Calm,Calm,-,N/A,,Clear,0,2013-04-21 10:35:00
6:55 AM,41.0,39.2,93,30.31,7.0,Calm,Calm,-,N/A,,Clear,0,2013-04-21 10:55:00
7:15 AM,41.0,39.2,93,30.32,7.0,NNE,3.5,-,N/A,,Clear,20,2013-04-21 11:15:00
7:35 AM,41.0,39.2,93,30.33,7.0,North,3.5,-,N/A,,Clear,10,2013-04-21 11:35:00
7:55 AM,44.6,41.0,87,30.34,7.0,North,3.5,-,N/A,,Clear,10,2013-04-21 11:55:00
8:15 AM,46.4,41.0,81,30.34,7.0,NNE,3.5,-,N/A,,Clear,20,2013-04-21 12:15:00
8:35 AM,48.2,41.0,76,30.35,7.0,Calm,Calm,-,N/A,,Clear,0,2013-04-21 12:35:00
8:55 AM,51.8,42.8,71,30.35,7.0,ENE,4.6,-,N/A,,Clear,70,2013-04-21 12:55:00
9:15 AM,53.6,42.8,67,30.35,10.0,East,5.8,-,N/A,,Clear,90,2013-04-21 13:15:00
9:35 AM,53.6,42.8,67,30.35,7.0,East,6.9,-,N/A,,Clear,100,2013-04-21 13:35:00
9:55 AM,55.4,42.8,63,30.36,7.0,East,5.8,-,N/A,,Clear,80,2013-04-21 13:55:00
10:15 AM,59.0,44.6,59,30.35,7.0,NE,6.9,-,N/A,,Clear,50,2013-04-21 14:15:00
10:35 AM,59.0,41.0,51,30.36,7.0,ENE,8.1,-,N/A,,Clear,70,2013-04-21 14:35:00
10:55 AM,60.8,41.0,48,30.36,7.0,East,5.8,-,N/A,,Clear,80,2013-04-21 14:55:00
11:15 AM,62.6,39.2,42,30.36,7.0,NE,9.2,17.3,N/A,,Clear,50,2013-04-21 15:15:00
11:35 AM,62.6,37.4,39,30.35,7.0,NE,9.2,17.3,N/A,,Clear,40,2013-04-21 15:35:00
11:55 AM,64.4,32.0,30,30.34,7.0,ENE,13.8,25.3,N/A,,Clear,60,2013-04-21 15:55:00
12:15 PM,64.4,32.0,30,30.34,7.0,ENE,12.7,20.7,N/A,,Clear,60,2013-04-21 16:15:00
12:35 PM,64.4,32.0,30,30.34,7.0,East,10.4,23.0,N/A,,Clear,100,2013-04-21 16:35:00
12:55 PM,64.4,32.0,30,30.34,7.0,NE,9.2,20.7,N/A,,Clear,50,2013-04-21 16:55:00
1:15 PM,64.4,32.0,30,30.33,10.0,East,10.4,19.6,N/A,,Clear,90,2013-04-21 17:15:00
1:35 PM,66.2,32.0,28,30.32,7.0,East,9.2,21.9,N/A,,Clear,80,2013-04-21 17:35:00
1:55 PM,66.2,32.0,28,30.32,7.0,ENE,10.4,18.4,N/A,,Clear,70,2013-04-21 17:55:00
2:15 PM,66.2,32.0,28,30.32,7.0,East,15.0,20.7,N/A,,Clear,90,2013-04-21 18:15:00
2:35 PM,66.2,32.0,28,30.31,7.0,East,13.8,19.6,N/A,,Clear,90,2013-04-21 18:35:00
2:55 PM,68.0,32.0,26,30.31,7.0,East,11.5,19.6,N/A,,Clear,90,2013-04-21 18:55:00
3:15 PM,68.0,32.0,26,30.30,7.0,East,13.8,20.7,N/A,,Clear,80,2013-04-21 19:15:00
3:35 PM,68.0,32.0,26,30.29,7.0,ESE,9.2,17.3,N/A,,Clear,110,2013-04-21 19:35:00
3:55 PM,68.0,32.0,26,30.29,7.0,East,9.2,21.9,N/A,,Clear,100,2013-04-21 19:55:00
4:15 PM,68.0,32.0,26,30.28,10.0,ESE,8.1,-,N/A,,Clear,120,2013-04-21 20:15:00
4:35 PM,68.0,30.2,24,30.28,7.0,East,11.5,16.1,N/A,,Clear,90,2013-04-21 20:35:00
4:55 PM,68.0,32.0,26,30.27,7.0,East,9.2,16.1,N/A,,Clear,90,2013-04-21 20:55:00
5:15 PM,68.0,30.2,24,30.26,7.0,ENE,11.5,17.3,N/A,,Clear,70,2013-04-21 21:15:00
5:35 PM,68.0,32.0,26,30.27,10.0,ESE,10.4,16.1,N/A,,Clear,110,2013-04-21 21:35:00
5:55 PM,66.2,32.0,28,30.28,7.0,East,10.4,20.7,N/A,,Clear,100,2013-04-21 21:55:00
6:15 PM,66.2,32.0,28,30.28,7.0,East,6.9,16.1,N/A,,Clear,80,2013-04-21 22:15:00
6:35 PM,66.2,32.0,28,30.28,7.0,ENE,8.1,-,N/A,,Clear,70,2013-04-21 22:35:00
6:55 PM,64.4,32.0,30,30.29,10.0,ENE,5.8,-,N/A,,Clear,70,2013-04-21 22:55:00
7:15 PM,64.4,32.0,30,30.29,10.0,East,4.6,-,N/A,,Clear,80,2013-04-21 23:15:00
7:35 PM,64.4,35.6,34,30.30,10.0,East,4.6,-,N/A,,Clear,80,2013-04-21 23:35:00
7:55 PM,60.8,35.6,39,30.30,7.0,East,5.8,-,N/A,,Clear,80,2013-04-21 23:55:00
8:15 PM,59.0,35.6,42,30.30,7.0,East,4.6,-,N/A,,Clear,80,2013-04-22 00:15:00
8:35 PM,59.0,37.4,45,30.31,7.0,East,4.6,-,N/A,,Clear,80,2013-04-22 00:35:00
8:55 PM,59.0,39.2,48,30.32,7.0,ENE,4.6,-,N/A,,Clear,70,2013-04-22 00:55:00
9:15 PM,59.0,39.2,48,30.32,10.0,ENE,5.8,-,N/A,,Clear,70,2013-04-22 01:15:00
9:35 PM,55.4,37.4,51,30.32,7.0,ENE,5.8,-,N/A,,Clear,70,2013-04-22 01:35:00
9:55 PM,55.4,37.4,51,30.32,7.0,East,6.9,-,N/A,,Clear,80,2013-04-22 01:55:00
10:15 PM,55.4,37.4,51,30.32,7.0,ENE,5.8,-,N/A,,Clear,60,2013-04-22 02:15:00
10:35 PM,55.4,37.4,51,30.31,10.0,ENE,8.1,-,N/A,,Clear,70,2013-04-22 02:35:00
10:55 PM,55.4,37.4,51,30.31,7.0,ENE,4.6,-,N/A,,Clear,70,2013-04-22 02:55:00
11:15 PM,53.6,37.4,54,30.31,7.0,ENE,5.8,-,N/A,,Clear,60,2013-04-22 03:15:00
11:35 PM,53.6,37.4,54,30.31,10.0,NE,5.8,-,N/A,,Clear,50,2013-04-22 03:35:00
11:55 PM,53.6,39.2,58,30.31,10.0,NE,5.8,-,N/A,,Clear,40,2013-04-22 03:55:00